277  
ASUS44 KCRP 201610  
HRRCRP  
 
SOUTH TEXAS REGIONAL WEATHER ROUNDUP  
NATIONAL WEATHER SERVICE CORPUS CHRISTI TX  
1100 AM CDT WED JUN 20 2018  
 
TXZ229>244-201700-   
..CORPUS CHRISTI AREA OBSERVATIONS
 
 
 
CITY SKY/WX TMP DP RH WIND PRES REMARKS  
CORPUS CHRISTI LGT RAIN 76 76 100 N3 29.76R  
NAS CORPUS CHR LGT RAIN 79 78 97 SW6 29.76R FOG  
ROCKPORT LGT RAIN 75 74 96 SE6 29.77F FOG  
KINGSVILLE ARP CLOUDY 76 76 100 CALM 29.77R  
KINGSVILLE NAS LGT RAIN 76 75 97 S7 29.77R  
ALICE CLOUDY 77 73 87 CALM 29.76S  

 
   
..VICTORIA AREA OBSERVATIONS
 
 
 
CITY SKY/WX TMP DP RH WIND PRES REMARKS  
PORT LAVACA RAIN 74 72 92 SE8 29.83R  
VICTORIA RAIN 75 73 93 SE9 29.83S FOG  
BEEVILLE CLOUDY 76 75 97 SE5 29.79S  
PLEASANTON CLOUDY 78 75 91 E5 29.80S  
SAN ANTONIO CLOUDY 79 72 79 NE8 29.85R  

 
   
..LAREDO AREA OBSERVATIONS
 
 
 
CITY SKY/WX TMP DP RH WIND PRES REMARKS  
LAREDO PTSUNNY 81 73 76 N12 29.80F  
COTULLA CLOUDY 79 75 87 NW5 29.80S  
DEL RIO PTSUNNY 85 70 60 VRB6 29.84S  
MCALLEN LGT RAIN 78 77 96 N3 29.78S  
HEBBRONVILLE CLOUDY 76 73 87 CALM 29.80S  

 
   
..OTHER TEXAS OBSERVATIONS
 
 
 
CITY SKY/WX TMP DP RH WIND PRES REMARKS  
BROWNSVILLE PTSUNNY 81 78 91 CALM 29.78S  
HOUSTON CLOUDY 86 78 77 SE13 29.87S HX 98  
COL. STATION LGT RAIN 77 76 96 E9 29.88S  
AUSTIN LGT RAIN 79 75 87 SE8 29.87S  
WACO CLOUDY 81 72 74 S5 29.90S  
FORT WORTH PTSUNNY 79 72 79 S6 29.90F  
WICHITA FALLS CLOUDY 74 68 81 NE9 29.94F  
LUBBOCK MOSUNNY 73 58 59 E25G37 30.05S  
EL PASO SUNNY 88 29 12 N9 29.97R  

 
   
..MARINE OBSERVATIONS
 
 
 
STATION/POSITION TIME SKY/WX TEMP WIND PRES VSBY WAVE SWELL  
AIR SEA DIR/SP/G HT/PER HT/PER  
(UTC) (F) (DEG/KT/KT) (MB) (MI) (FT/S) (FT/S)  
PORT ARANSAS 1600 77 82 140/ 11/ 13 1008.1F  
BUOY 90 E PORT A 1550 83 83 120/ 17/ 21 1009.4F 7/ 7 2/11  
BUOY 200 E PT IS 1550 83 82 140/ 17/ 21 1010.8R 6/ 7  
BUOY 15 E GALVES NOT AVBL  

 
 
 
CLICK HERE TO GO TO PREVIOUS BULLETINS.

The Nexlab TX Page Main Text Page